Location: Arcizac
(43.0933°N, 0.0112°E)
Time: 08:00:11
(UTC+00:00)

Okean 2 Rocket - Pass Details

Date: 14 December 2019
Orbit: 617 x 641 km, 82.5° (Epoch: 28 January)

Event Time Altitude Azimuth Distance (km) Brightness Sun altitude
Rises 18:03:41 0° 354° (N) 2,938 6.4 -17.2°
Reaches altitude 10° 18:05:57 10° 358° (N) 2,029 5.6 -17.6°
Maximum altitude 18:10:25 65° 80° (E) 702 3.0 -18.4°
Drops below altitude 10° 18:14:53 10° 163° (SSE) 2,024 5.7 -19.2°
Sets 18:17:08 0° 166° (SSE) 2,930 6.5 -19.6°
